Regional Weather Roundup
Issued by NWS

Home | Current Version | Previous Version | Graphics & Text | Print | Product List | Glossary On
Versions: 1 2 3 4 5 6 7 8 9 10 11 12 13 14 15 16 17 18 19 20 21 22 23 24 25 26 27 28 29 30 31 32 33 34 35 36 37 38 39 40 41 42 43 44 45 46 47 48 49 50
000
ASUS43 KLMK 221002
RWRKY
KENTUCKY REGIONAL WEATHER ROUNDUP
NATIONAL WEATHER SERVICE LOUISVILLE KY
600 AM EDT SAT APR 22 2017

NOTE "FAIR" INDICATES FEW OR NO CLOUDS BELOW 12,000 FEET
WITH NO SIGNIFICANT WEATHER AND/OR OBSTRUCTIONS TO VISIBILITY.

KYZ001>023-026-027-061>063-070>075-221100-
WESTERN AND SOUTH CENTRAL KENTUCKY

CITY           SKY/WX    TMP DP  RH WIND       PRES   REMARKS
PADUCAH        CLOUDY    52  49  89 NE14G22   29.85F
HENDERSON      RAIN      47  45  93 NE16      29.96F
OWENSBORO      RAIN      48  46  93 NE13      29.97F
HOPKINSVILLE   RAIN      52  52 100 NE13      29.89F FOG
BOWLING GREEN  HVY RAIN  53  51  93 N5        29.94R FOG
GLASGOW        NOT AVBL
$$

KYZ024-025-028>034-038-045-046-053-221100-
NORTH CENTRAL KENTUCKY

CITY           SKY/WX    TMP DP  RH WIND       PRES   REMARKS
LOUISVILLE/SDF LGT RAIN  50  46  86 N10       29.99R
LOUISVILLE/LOU LGT RAIN  49  45  86 N7        29.98S
FORT KNOX      RAIN      48  48 100 N6        29.96R FOG
$$

KYZ035>037-039>044-047>052-055>060-089>105-221100-
NORTHEAST KENTUCKY

CITY           SKY/WX    TMP DP  RH WIND       PRES   REMARKS
LEXINGTON      CLOUDY    49  45  86 NE13      29.95R
COVINGTON      CLOUDY    48  42  80 NE13      30.02R
FRANKFORT      CLOUDY    50  44  80 NE9G20    29.96R
$$

KYZ054-064>069-076>088-106>120-221100-
SOUTHEAST KENTUCKY

CITY           SKY/WX    TMP DP  RH WIND       PRES   REMARKS
JACKSON        CLOUDY    50  49  96 CALM      29.91S FOG
LONDON         CLOUDY    52  48  86 NE10      29.90R
SOMERSET       NOT AVBL
MIDDLESBORO    HVY RAIN  63  63 100 N3        29.86R
MONTICELLO     CLOUDY    55  52  89 VRB7      29.91S
$$





USA.gov is the U.S. government's official web portal to all federal, state and local government web resources and services.